Location: Newark
(40.7066°N, 111.8219°W)
Time: 22:04:23
(UTC+00:00)

Transit 2A Rocket - Pass Details

Date: 20 November 2019
Orbit: 594 x 909 km, 66.7° (Epoch: 15 December)

Event Time Altitude Azimuth Distance (km) Brightness Sun altitude
Rises 13:53:14 0° 328° (NNW) 2,852 - -5.4°
Exits shadow 13:53:28 - 327° (NNW) 2,755 7.4 -5.4°
Reaches altitude 10° 13:55:27 10° 326° (NW) 1,962 6.6 -5.1°
Maximum altitude 13:59:48 69° 243° (WSW) 673 4.6 -4.3°
Drops below altitude 10° 14:04:25 10° 160° (SSE) 2,073 7.9 -3.5°
Sets 14:06:49 0° 158° (SSE) 3,030 8.9 -3.1°
